�N����,����,�~����,�C��,���x,�C��,����,���ϕ���,�ő�u�ԕ���,�ő厞����,���˗�,�I�_���x,�n�����x,�ő啗���N��,DTYPE
"16/04/19","00:10",0.0,9.7,78.2,1012.1,310.5,1.1,1.7,301.7,0.00,6.1,13.9,"00:08:44",1
"16/04/19","00:20",0.0,9.2,79.8,1012.3,295.6,1.3,1.7,331.2,0.00,5.9,13.9,"00:10:26",1
"16/04/19","00:30",0.0,9.0,80.8,1011.9,308.8,1.3,1.7,303.5,0.00,5.9,13.7,"00:23:20",1
"16/04/19","00:40",0.0,8.6,81.9,1012.1,300.7,1.6,1.8,312.9,0.00,5.7,13.6,"00:38:36",1
"16/04/19","00:50",0.0,8.3,83.5,1012.3,298.7,1.2,1.7,294.8,0.00,5.7,13.7,"00:40:58",1
"16/04/19","01:00",0.0,8.1,84.9,1012.1,293.0,1.0,1.9,313.6,0.00,5.8,13.4,"00:56:26",1
"16/04/19","01:10",0.0,7.8,86.4,1012.1,305.7,1.8,2.4,311.8,0.00,5.7,13.5,"01:04:34",1
"16/04/19","01:20",0.0,7.7,87.4,1011.9,290.6,1.7,2.6,305.9,0.00,5.8,13.4,"01:19:30",1
"16/04/19","01:30",0.0,7.8,86.7,1011.9,303.3,2.0,2.5,313.8,0.00,5.8,13.4,"01:20:02",1
"16/04/19","01:40",0.0,7.8,86.9,1011.9,321.6,1.6,2.8,325.2,0.00,5.8,13.3,"01:31:16",1
"16/04/19","01:50",0.0,7.6,87.4,1011.6,303.4,0.7,1.7,308.8,0.00,5.7,13.3,"01:49:08",1
"16/04/19","02:00",0.0,7.3,87.6,1011.6,297.4,1.6,2.1,304.2,0.00,5.4,13.1,"01:58:26",1
"16/04/19","02:10",0.0,7.2,88.4,1012.1,305.7,1.7,2.6,267.4,0.00,5.5,13.0,"02:03:46",1
"16/04/19","02:20",0.0,7.1,89.4,1011.4,299.2,1.2,1.9,310.5,0.00,5.5,13.2,"02:13:06",1
"16/04/19","02:30",0.0,7.0,89.7,1011.4,295.6,1.6,2.2,303.8,0.00,5.5,12.9,"02:22:54",1
"16/04/19","02:40",0.0,6.8,90.1,1011.6,293.8,1.1,1.8,315.1,0.00,5.3,12.9,"02:39:52",1
"16/04/19","02:50",0.0,6.6,90.6,1011.6,293.1,1.7,2.4,293.6,0.00,5.2,12.7,"02:47:20",1
"16/04/19","03:00",0.0,6.7,91.6,1012.1,300.3,1.7,2.8,321.3,0.00,5.5,12.7,"02:59:46",1
"16/04/19","03:10",0.0,7.5,91.1,1011.6,320.9,3.2,4.0,318.5,0.00,6.2,12.8,"03:05:06",1
"16/04/19","03:20",0.0,7.7,89.0,1012.1,321.0,2.6,3.3,315.4,0.00,6.0,12.7,"03:10:08",1
"16/04/19","03:30",0.0,7.5,88.6,1011.9,329.7,2.1,2.8,335.2,0.00,5.8,12.6,"03:21:54",1
"16/04/19","03:40",0.0,7.3,88.9,1012.1,330.5,2.1,3.3,314.0,0.00,5.6,12.4,"03:31:46",1
"16/04/19","03:50",0.0,6.9,88.9,1012.1,306.2,1.8,2.9,320.2,0.00,5.2,12.5,"03:42:00",1
"16/04/19","04:00",0.0,6.5,89.8,1012.3,280.1,0.5,1.1,304.2,0.00,5.0,12.4,"03:50:08",1
"16/04/19","04:10",0.0,6.3,90.8,1011.6,311.9,1.5,2.2,315.0,0.00,4.9,12.4,"04:09:20",1
"16/04/19","04:20",0.0,6.3,91.5,1012.3,307.0,1.6,2.7,334.4,0.00,5.1,12.4,"04:13:04",1
"16/04/19","04:30",0.0,6.2,91.6,1012.6,290.4,0.6,1.3,311.6,0.00,5.0,12.2,"04:20:02",1
"16/04/19","04:40",0.0,6.0,91.8,1012.8,285.1,1.3,1.9,296.5,0.00,4.8,12.3,"04:31:12",1
"16/04/19","04:50",0.0,5.8,92.8,1012.8,310.2,1.8,2.5,320.3,0.00,4.8,12.1,"04:44:48",1
"16/04/19","05:00",0.0,5.6,93.4,1012.3,302.6,1.6,2.6,317.1,0.00,4.7,12.1,"04:59:52",1
"16/04/19","05:10",0.0,5.4,94.0,1012.8,306.4,1.5,2.6,323.2,0.00,4.6,12.0,"05:00:16",1
"16/04/19","05:20",0.0,5.1,94.4,1012.3,298.5,1.7,2.2,314.6,0.00,4.3,12.1,"05:13:44",1
"16/04/19","05:30",0.0,5.1,95.0,1012.6,290.5,0.8,1.7,304.5,0.00,4.4,11.7,"05:22:56",1
"16/04/19","05:40",0.0,5.3,95.5,1012.8,306.4,1.6,2.0,310.8,0.00,4.7,11.8,"05:33:04",1
"16/04/19","05:50",0.0,5.4,95.4,1013.3,303.2,1.7,2.7,311.9,0.00,4.8,11.8,"05:48:08",1
"16/04/19","06:00",0.0,5.8,95.5,1013.3,309.5,1.8,2.6,319.0,0.00,5.2,11.8,"05:50:24",1
"16/04/19","06:10",0.0,6.3,94.8,1013.3,311.1,1.7,2.6,323.8,0.00,5.6,11.9,"06:07:26",1
"16/04/19","06:20",0.0,7.1,93.9,1013.5,324.5,1.5,2.0,334.6,0.01,6.2,11.9,"06:13:22",1
"16/04/19","06:30",0.0,8.1,89.1,1013.5,310.6,1.1,1.8,322.6,0.02,6.5,11.8,"06:26:56",1
"16/04/19","06:40",0.0,8.8,85.8,1014.2,329.4,0.8,1.4,335.9,0.03,6.6,12.0,"06:37:04",1
"16/04/19","06:50",0.0,9.2,85.8,1014.2,341.6,0.5,1.6,323.3,0.04,7.0,12.0,"06:42:32",1
"16/04/19","07:00",0.0,10.3,83.8,1014.5,280.7,0.3,0.9,294.7,0.06,7.7,12.1,"06:58:48",1
"16/04/19","07:10",0.0,10.8,77.3,1014.7,275.7,0.5,0.9,268.0,0.10,7.0,12.1,"07:06:32",1
"16/04/19","07:20",0.0,11.6,73.0,1015.2,303.8,0.5,1.3,324.2,0.14,7.0,12.1,"07:18:48",1
"16/04/19","07:30",0.0,12.0,73.1,1015.2,308.5,0.7,1.8,318.4,0.18,7.4,12.0,"07:20:24",1
"16/04/19","07:40",0.0,12.5,71.4,1015.4,248.9,0.5,1.4,109.5,0.21,7.5,12.2,"07:34:24",1
"16/04/19","07:50",0.0,12.9,70.2,1015.4,229.7,0.5,1.9,205.8,0.23,7.6,12.3,"07:41:44",1
"16/04/19","08:00",0.0,13.5,67.2,1015.6,90.8,0.5,1.9,111.0,0.26,7.6,12.3,"07:58:32",1
"16/04/19","08:10",0.0,13.4,69.9,1015.4,150.4,0.8,3.3,125.5,0.29,8.1,12.5,"08:06:40",1
"16/04/19","08:20",0.0,13.6,66.2,1015.2,165.7,1.3,2.5,128.9,0.32,7.5,12.8,"08:13:12",1
"16/04/19","08:30",0.0,14.0,65.2,1015.4,192.1,1.2,2.6,199.6,0.34,7.6,12.9,"08:27:20",1
"16/04/19","08:40",0.0,14.6,64.7,1015.6,198.5,1.2,2.7,210.6,0.37,8.1,13.2,"08:35:36",1
"16/04/19","08:50",0.0,15.2,61.1,1015.4,167.7,1.3,2.7,155.7,0.39,7.8,13.3,"08:48:24",1
"16/04/19","09:00",0.0,15.5,61.2,1015.2,193.4,1.1,2.5,158.7,0.42,8.1,13.5,"08:54:32",1
"16/04/19","09:10",0.0,16.4,60.4,1014.9,195.7,1.5,3.6,203.0,0.44,8.8,13.7,"09:05:28",1
"16/04/19","09:20",0.0,16.1,56.0,1014.9,191.5,1.8,3.9,229.1,0.46,7.4,14.0,"09:17:44",1
"16/04/19","09:30",0.0,16.9,56.4,1014.7,179.4,2.0,4.1,224.9,0.48,8.2,14.2,"09:20:40",1
"16/04/19","09:40",0.0,16.8,58.5,1014.7,179.5,2.5,4.3,202.3,0.49,8.7,14.3,"09:34:24",1
"16/04/19","09:50",0.0,17.5,51.3,1014.5,173.3,2.5,5.8,216.4,0.51,7.4,14.6,"09:40:02",1
"16/04/19","10:00",0.0,17.7,49.6,1014.7,157.3,2.6,4.1,133.5,0.53,7.1,14.9,"09:51:44",1
"16/04/19","10:10",0.0,18.3,43.9,1014.7,225.3,2.0,4.3,126.5,0.55,5.9,15.0,"10:00:48",1
"16/04/19","10:20",0.0,18.7,40.4,1014.5,235.9,2.5,5.4,203.3,0.57,5.0,15.3,"10:12:00",1
"16/04/19","10:30",0.0,19.1,39.0,1014.2,245.3,2.5,5.5,223.3,0.53,4.9,15.3,"10:20:40",1
"16/04/19","10:40",0.0,19.5,39.0,1014.5,262.8,2.7,5.9,301.3,0.56,5.2,15.8,"10:39:52",1
"16/04/19","10:50",0.0,19.5,41.5,1014.5,304.3,2.5,4.3,266.5,0.35,6.1,15.9,"10:42:16",1
"16/04/19","11:00",0.0,19.1,41.5,1014.0,341.7,2.7,4.7,330.8,0.37,5.8,16.2,"10:53:04",1
"16/04/19","11:10",0.0,19.9,38.9,1014.7,328.2,3.1,6.3,349.7,0.54,5.6,16.2,"11:02:16",1
"16/04/19","11:20",0.0,20.3,40.1,1014.2,289.1,3.0,5.5,304.3,0.68,6.3,16.3,"11:14:32",1
"16/04/19","11:30",0.0,19.5,41.0,1014.0,329.5,3.2,7.5,351.2,0.60,6.0,16.6,"11:26:08",1
"16/04/19","11:40",0.0,19.2,43.5,1014.2,339.1,4.0,6.6,318.8,0.38,6.5,16.6,"11:30:56",1
"16/04/19","11:50",0.0,19.9,45.8,1014.2,339.2,3.0,5.9,341.9,0.55,7.9,16.7,"11:42:40",1
"16/04/19","12:00",0.0,19.7,44.3,1014.0,348.3,3.7,7.1,325.2,0.66,7.3,16.9,"11:57:44",1
"16/04/19","12:10",0.0,18.8,48.1,1014.5,345.1,4.1,9.0,342.1,0.37,7.6,17.0,"12:04:32",1
"16/04/19","12:20",0.0,18.9,43.7,1014.2,324.1,3.4,7.0,332.8,0.35,6.3,17.0,"12:18:40",1
"16/04/19","12:30",0.0,19.6,44.1,1014.5,316.0,3.2,7.5,334.3,0.49,7.1,17.3,"12:27:12",1
"16/04/19","12:40",0.0,20.0,41.1,1014.5,343.1,3.1,6.6,353.2,0.61,6.4,17.5,"12:31:12",1
"16/04/19","12:50",0.0,20.4,41.2,1014.2,316.2,2.8,6.4,349.0,0.61,6.8,17.7,"12:41:36",1
"16/04/19","13:00",0.0,20.8,42.3,1014.2,336.3,3.4,7.4,342.0,0.65,7.6,17.8,"12:59:28",1
"16/04/19","13:10",0.0,20.7,38.7,1014.0,341.1,3.9,6.8,350.1,0.63,6.2,17.7,"13:02:08",1
"16/04/19","13:20",0.0,20.7,36.2,1014.0,307.1,3.2,6.4,337.0,0.61,5.2,17.9,"13:17:44",1
"16/04/19","13:30",0.0,20.8,36.8,1013.8,315.4,3.4,6.6,333.7,0.63,5.6,18.2,"13:28:00",1
"16/04/19","13:40",0.0,21.1,37.2,1014.2,325.2,3.1,7.9,353.5,0.63,6.0,18.4,"13:35:20",1
"16/04/19","13:50",0.0,20.8,34.2,1014.0,344.6,3.6,8.2,16.5,0.58,4.5,18.4,"13:43:04",1
"16/04/19","14:00",0.0,21.0,34.7,1014.0,338.3,3.7,10.5,346.2,0.49,4.9,18.4,"13:55:36",1
"16/04/19","14:10",0.0,21.2,32.5,1013.5,286.9,2.3,4.8,328.2,0.57,4.1,18.6,"14:08:08",1
"16/04/19","14:20",0.0,21.1,33.6,1013.5,280.7,3.4,6.7,306.5,0.58,4.5,18.7,"14:12:40",1
"16/04/19","14:30",0.0,20.8,32.2,1013.5,283.0,2.7,7.3,210.6,0.51,3.6,18.6,"14:27:52",1
"16/04/19","14:40",0.0,21.3,30.9,1013.3,302.7,2.7,5.8,321.9,0.52,3.5,18.7,"14:36:24",1
"16/04/19","14:50",0.0,21.6,33.2,1013.3,315.9,2.8,5.2,342.3,0.50,4.8,18.8,"14:47:28",1
"16/04/19","15:00",0.0,21.2,34.4,1013.0,345.0,2.5,7.4,340.1,0.48,4.9,18.9,"14:52:32",1
"16/04/19","15:10",0.0,20.4,40.3,1013.3,351.1,3.2,6.8,352.6,0.44,6.5,19.0,"15:03:12",1
"16/04/19","15:20",0.0,20.0,41.0,1013.0,9.4,2.5,7.2,59.0,0.43,6.4,19.2,"15:15:52",1
"16/04/19","15:30",0.0,20.5,40.8,1013.3,354.5,2.7,6.8,327.5,0.40,6.8,19.1,"15:29:20",1
"16/04/19","15:40",0.0,20.9,36.6,1013.3,6.4,2.7,6.6,348.5,0.36,5.6,18.9,"15:30:24",1
"16/04/19","15:50",0.0,20.6,42.3,1013.8,354.4,3.7,8.2,346.1,0.33,7.4,18.8,"15:42:32",1
"16/04/19","16:00",0.0,19.5,46.3,1014.0,356.9,4.0,6.7,39.4,0.29,7.7,18.6,"15:52:40",1
"16/04/19","16:10",0.0,18.9,46.3,1014.2,358.2,4.6,8.9,19.4,0.26,7.2,18.7,"16:06:48",1
"16/04/19","16:20",0.0,18.5,48.0,1014.5,353.4,3.7,7.2,355.1,0.23,7.3,18.4,"16:11:36",1
"16/04/19","16:30",0.0,18.3,49.1,1014.9,344.0,3.7,6.6,348.4,0.20,7.5,18.6,"16:26:24",1
"16/04/19","16:40",0.0,17.9,49.4,1014.9,344.8,3.2,7.0,331.4,0.17,7.2,18.4,"16:33:28",1
"16/04/19","16:50",0.0,17.6,51.7,1015.4,347.0,3.2,6.0,352.3,0.14,7.6,18.5,"16:42:56",1
"16/04/19","17:00",0.0,17.0,51.4,1015.6,358.7,2.8,6.0,347.9,0.11,7.0,18.5,"16:51:36",1
"16/04/19","17:10",0.0,16.6,52.5,1015.2,343.1,2.7,6.5,342.3,0.08,6.9,18.1,"17:04:48",1
"16/04/19","17:20",0.0,16.5,53.5,1015.4,314.4,2.0,4.7,330.6,0.06,7.1,18.1,"17:15:52",1
"16/04/19","17:30",0.0,16.0,54.8,1015.6,314.7,2.5,4.2,306.9,0.04,7.0,18.0,"17:25:36",1
"16/04/19","17:40",0.0,15.7,56.3,1015.6,346.5,2.0,5.4,298.4,0.03,7.1,17.8,"17:34:32",1
"16/04/19","17:50",0.0,15.3,57.1,1015.6,298.0,1.8,3.6,323.2,0.02,6.9,17.8,"17:40:40",1
"16/04/19","18:00",0.0,15.1,58.4,1015.9,335.0,1.5,3.3,340.7,0.01,7.0,17.7,"17:50:02",1
"16/04/19","18:10",0.0,14.7,59.7,1016.4,341.9,2.0,5.5,309.4,0.00,7.0,17.5,"18:00:24",1
"16/04/19","18:20",0.0,14.5,60.0,1016.4,338.8,1.7,4.3,346.0,0.00,6.9,17.3,"18:11:44",1
"16/04/19","18:30",0.0,14.1,61.4,1016.8,325.8,1.7,4.5,317.3,0.00,6.8,17.5,"18:28:32",1
"16/04/19","18:40",0.0,13.9,62.5,1016.8,288.3,1.5,3.9,342.6,0.00,6.9,17.1,"18:31:12",1
"16/04/19","18:50",0.0,13.5,63.9,1016.6,272.9,1.8,3.9,312.0,0.00,6.8,17.0,"18:43:52",1
"16/04/19","19:00",0.0,13.3,64.2,1017.1,319.8,1.2,2.8,248.1,0.00,6.7,17.0,"18:52:48",1
"16/04/19","19:10",0.0,13.1,65.1,1017.3,278.1,1.5,4.7,237.3,0.00,6.7,16.7,"19:01:52",1
"16/04/19","19:20",0.0,12.8,65.4,1017.3,301.6,1.8,5.9,305.4,0.00,6.5,16.7,"19:18:00",1
"16/04/19","19:30",0.0,12.9,64.0,1017.5,327.7,2.3,6.0,327.7,0.00,6.3,16.5,"19:28:32",1
"16/04/19","19:40",0.0,12.7,63.7,1017.8,351.1,2.0,5.1,322.4,0.00,6.0,16.3,"19:34:26",1
"16/04/19","19:50",0.0,12.7,63.3,1018.0,4.9,1.2,3.2,18.2,0.00,6.0,16.3,"19:41:12",1
"16/04/19","20:00",0.0,12.6,63.2,1018.0,4.6,1.8,3.6,338.4,0.00,5.8,16.1,"19:54:28",1
"16/04/19","20:10",0.0,12.5,62.5,1018.2,347.7,2.1,4.3,356.2,0.00,5.6,16.2,"20:05:38",1
"16/04/19","20:20",0.0,12.2,64.7,1018.7,348.4,2.2,4.1,337.9,0.00,5.8,15.9,"20:10:34",1
"16/04/19","20:30",0.0,11.9,64.2,1018.5,347.3,2.3,4.4,1.7,0.00,5.4,15.8,"20:28:00",1
"16/04/19","20:40",0.0,12.1,63.1,1018.0,346.2,2.6,5.0,339.6,0.00,5.3,15.7,"20:39:30",1
"16/04/19","20:50",0.0,12.1,63.3,1018.2,355.7,2.8,5.4,351.9,0.00,5.4,15.7,"20:44:50",1
"16/04/19","21:00",0.0,12.0,63.5,1019.0,2.1,2.5,6.6,336.1,0.00,5.3,15.6,"20:56:38",1
"16/04/19","21:10",0.0,11.5,64.6,1019.0,351.5,2.0,4.5,339.4,0.00,5.1,15.4,"21:01:36",1
"16/04/19","21:20",0.0,11.4,64.4,1019.0,336.6,2.7,4.3,330.5,0.00,5.0,15.3,"21:13:04",1
"16/04/19","21:30",0.0,11.4,63.5,1018.7,349.5,2.5,5.1,353.0,0.00,4.8,15.3,"21:27:22",1
"16/04/19","21:40",0.0,11.3,64.0,1019.4,334.6,2.3,3.4,341.2,0.00,4.8,15.2,"21:33:50",1
"16/04/19","21:50",0.0,11.1,64.8,1019.0,340.3,1.7,2.8,341.4,0.00,4.8,15.1,"21:42:34",1
"16/04/19","22:00",0.0,10.6,66.6,1019.2,317.3,1.0,1.7,335.5,0.00,4.7,15.0,"21:50:12",1
"16/04/19","22:10",0.0,10.7,66.4,1019.2,319.1,2.3,3.4,325.6,0.00,4.7,14.8,"22:07:24",1
"16/04/19","22:20",0.0,10.6,66.4,1019.2,296.1,2.0,2.8,273.4,0.00,4.6,14.8,"22:15:00",1
"16/04/19","22:30",0.0,10.8,65.1,1019.0,307.9,3.1,4.4,327.2,0.00,4.6,14.8,"22:28:10",1
"16/04/19","22:40",0.0,10.8,65.2,1019.0,299.0,2.6,7.0,313.7,0.00,4.6,14.5,"22:39:48",1
"16/04/19","22:50",0.0,10.7,66.3,1019.2,310.5,2.0,3.2,309.9,0.00,4.7,14.3,"22:40:56",1
"16/04/19","23:00",0.0,10.6,67.1,1019.4,316.8,1.8,2.9,295.3,0.00,4.8,14.5,"22:52:08",1
"16/04/19","23:10",0.0,10.4,67.6,1019.4,290.1,1.3,2.2,314.7,0.00,4.7,14.2,"23:06:10",1
"16/04/19","23:20",0.0,10.3,67.7,1019.7,283.1,1.0,1.6,14.1,0.00,4.6,14.3,"23:13:22",1
"16/04/19","23:30",0.0,10.3,67.9,1019.2,317.3,1.8,2.6,286.2,0.00,4.7,14.1,"23:23:52",1
"16/04/19","23:40",0.0,10.4,66.9,1019.4,297.1,2.0,2.7,304.9,0.00,4.6,14.2,"23:36:02",1
"16/04/19","23:50",0.0,10.2,67.5,1019.4,269.1,0.5,0.5,269.1,0.00,4.5,14.0,"23:43:36",1
"16/04/19","24:00",0.0,9.9,68.4,1019.9,271.0,1.5,1.6,274.7,0.00,4.4,14.0,"23:56:54",1
